CAPE
0 0 0 0 0 0 0 0 0 0 0 0 0 0 0 0 0 0 0 0 0 0 0 0 0 0 0 0 0 0 0 0 0 0 0 0 0 0 0 20 27 34 70 65
0 0 0 0 0 0 0 0 0 0 0 0 0 0 0 0 0 0 0 0 0 0 0 0 0 0 0 0 0 0 0 0 0 0 0 0 0 0 0 0 0 43 51 68
0 0 0 0 0 0 0 0 0 0 0 0 0 0 0 0 0 0 0 0 0 0 0 0 0 0 0 0 0 0 0 0 0 0 0 0 0 0 0 0 0 30 48 41
0 0 0 0 0 0 0 0 0 0 0 0 0 0 0 0 0 0 0 0 0 0 0 0 0 0 0 0 0 0 0 0 0 0 0 0 1 2 0 0 0 0 6 63
0 0 0 0 0 0 0 0 0 0 0 0 0 0 0 0 0 0 0 0 0 0 0 0 0 0 0 0 0 0 0 0 0 0 0 0 0 1 1 0 0 0 0 61
0 0 0 0 0 0 0 0 0 0 0 0 0 0 0 0 0 0 0 0 0 0 0 0 0 0 0 0 0 0 0 0 0 0 0 0 0 0 2 4 4 2 0 19
0 0 0 0 0 0 0 0 0 0 0 0 0 0 0 0 0 0 0 0 0 0 0 0 0 0 0 0 0 0 0 0 0 0 0 0 0 1 2 3 4 4 2 4
0 0 0 0 0 0 0 0 0 0 0 0 0 0 0 0 0 0 0 0 0 0 0 0 0 0 0 0 0 0 0 0 0 0 0 0 0 1 1 1 2 4 5 2
0 0 0 0 0 0 0 0 0 0 0 0 0 0 0 0 0 0 0 0 0 0 0 0 0 0 0 0 0 0 0 0 0 0 0 0 1 1 2 1 2 3 4 3
0 0 0 0 0 0 0 0 0 0 0 0 0 0 0 0 0 0 0 0 0 0 0 0 0 0 0 0 0 0 0 0 0 0 0 0 0 1 1 0 2 3 3 3
0 0 0 0 0 0 0 0 0 0 0 0 0 0 0 0 0 0 0 0 0 0 0 0 0 0 0 0 0 0 0 0 0 0 0 0 0 0 1 1 0 1 3 3
0 0 0 0 0 0 0 0 0 0 0 0 0 0 0 0 0 0 0 0 0 0 0 0 0 0 0 0 0 0 0 0 0 0 0 0 0 0 0 1 0 1 1 3
0 0 0 0 0 0 0 0 0 0 0 0 0 0 0 0 0 0 0 0 0 0 0 0 0 0 0 0 0 0 0 0 0 0 0 0 0 0 0 0 0 1 1 1
0 0 0 0 0 0 0 0 0 0 0 0 0 0 0 0 0 0 0 0 0 0 0 0 0 0 0 0 0 0 0 0 0 0 0 0 0 0 1 0 0 0 1 1
0 0 0 0 0 0 0 0 0 0 0 0 0 0 0 0 0 0 0 0 0 0 0 0 0 0 0 0 0 0 0 0 0 0 0 0 0 0 0 0 0 0 0 0
0 0 0 0 0 0 0 0 0 0 0 0 0 0 0 0 0 0 0 0 0 0 0 0 0 0 0 0 0 0 0 0 0 0 0 0 0 0 0 0 0 0 0 0
0 0 0 0 0 0 0 0 0 0 0 0 0 0 0 0 0 0 0 0 0 0 0 0 0 0 0 0 0 0 0 0 0 0 0 0 0 0 0 0 0 0 0 0
0 0 0 0 0 0 0 0 0 0 0 0 0 0 0 0 0 0 0 0 0 0 0 0 0 0 0 0 0 0 0 0 0 0 0 0 0 0 0 0 0 0 0 0
0 0 0 0 0 0 0 0 0 0 0 0 0 0 0 0 0 0 0 0 0 0 0 0 0 0 0 0 0 0 0 0 0 0 0 0 0 0 0 0 0 0 0 0
0 0 0 0 0 0 0 0 0 0 0 0 0 0 0 0 0 0 0 0 0 0 0 0 0 0 0 0 0 0 0 0 0 0 0 0 0 0 0 0 0 0 0 0
0 0 0 0 0 0 0 0 0 0 0 0 0 0 0 0 0 0 0 0 0 0 0 0 0 0 0 0 0 0 0 0 0 0 0 0 0 0 0 0 0 0 0 0
0 0 0 0 0 0 0 0 0 0 0 0 0 0 0 0 0 0 0 0 0 0 0 0 0 0 0 0 0 0 0 0 0 0 0 0 0 0 0 0 0 0 0 0
0 0 0 0 0 0 0 0 0 0 0 0 0 0 0 0 0 0 0 0 0 0 0 0 0 0 0 0 0 0 0 0 0 0 0 0 0 0 0 0 0 0 0 0
0 0 0 0 0 0 0 0 0 0 0 0 0 0 0 0 0 0 0 0 0 0 0 0 0 0 0 0 0 0 0 0 0 0 0 0 0 0 0 0 0 0 0 0
0 0 0 0 0 0 0 0 0 0 0 0 0 0 0 0 0 0 0 0 0 0 0 0 0 0 0 0 0 0 0 0 0 0 0 0 0 0 0 0 0 0 0 0
0 0 0 0 0 0 0 0 0 0 0 0 0 0 0 0 0 0 0 0 0 0 0 0 0 0 0 0 0 0 0 0 0 0 0 0 0 0 0 0 0 0 0 0
CIN
-0 -0 -0 -0 -0 -0 -0 -0 -0 -0 -0 -0 -0 -0 -0 -0 -0 -0 -0 -0 -0 -0 -0 -0 -0 -0 -0 -0 -0 -0 -0 -0 -0 -0 -0 -0 -0 -0 -0 -1 -1 -0 -56 -49
-0 -0 -0 -0 -0 -0 -0 -0 -0 -0 -0 -0 -0 -0 -0 -0 -0 -0 -0 -0 -0 -0 -0 -0 -0 -0 -0 -0 -0 -0 -0 -0 -0 -0 -0 -0 -0 -0 -0 -0 -0 -0 -0 -36
-0 -0 -0 -0 -0 -0 -0 -0 -0 -0 -0 -0 -0 -0 -0 -0 -0 -0 -0 -0 -0 -0 -0 -0 -0 -0 -0 -0 -0 -0 -0 -0 -0 -0 -0 -0 -0 -0 -0 -0 -0 -0 -0 -2
-0 -0 -0 -0 -0 -0 -0 -0 -0 -0 -0 -0 -0 -0 -0 -0 -0 -0 -0 -0 -0 -0 -0 -0 -0 -0 -0 -0 -0 -0 -0 -0 -0 -0 -0 -0 -0 -0 -0 -0 -0 -0 -0 -0
-0 -0 -0 -0 -0 -0 -0 -0 -0 -0 -0 -0 -0 -0 -0 -0 -0 -0 -0 -0 -0 -0 -0 -0 -0 -0 -0 -0 -0 -0 -0 -0 -0 -0 -0 -0 -0 -0 -0 -0 -0 -0 -0 -0
-0 -0 -0 -0 -0 -0 -0 -0 -0 -0 -0 -0 -0 -0 -0 -0 -0 -0 -0 -0 -0 -0 -0 -0 -0 -0 -0 -0 -0 -0 -0 -0 -0 -0 -0 -0 -0 -0 -0 -0 -0 -0 -0 -0
-0 -0 -0 -0 -0 -0 -0 -0 -0 -0 -0 -0 -0 -0 -0 -0 -0 -0 -0 -0 -0 -0 -0 -0 -0 -0 -0 -0 -0 -0 -0 -0 -0 -0 -0 -0 -0 -0 -0 -0 -0 -0 -0 -0
-0 -0 -0 -0 -0 -0 -0 -0 -0 -0 -0 -0 -0 -0 -0 -0 -0 -0 -0 -0 -0 -0 -0 -0 -0 -0 -0 -0 -0 -0 -0 -0 -0 -0 -0 -0 -0 -0 -0 -0 -0 -0 -0 -0
-0 -0 -0 -0 -0 -0 -0 -0 -0 -0 -0 -0 -0 -0 -0 -0 -0 -0 -0 -0 -0 -0 -0 -0 -0 -0 -0 -0 -0 -0 -0 -0 -0 -0 -0 -0 -0 -0 -0 -0 -0 -0 -0 -0
-0 -0 -0 -0 -0 -0 -0 -0 -0 -0 -0 -0 -0 -0 -0 -0 -0 -0 -0 -0 -0 -0 -0 -0 -0 -0 -0 -0 -0 -0 -0 -0 -0 -0 -0 -0 -0 -0 -0 -0 -0 -0 -0 -0
-0 -0 -0 -0 -0 -0 -0 -0 -0 -0 -0 -0 -0 -0 -0 -0 -0 -0 -0 -0 -0 -0 -0 -0 -0 -0 -0 -0 -0 -0 -0 -0 -0 -0 -0 -0 -0 -0 -0 -0 -0 -0 -0 -0
-0 -0 -0 -0 -0 -0 -0 -0 -0 -0 -0 -0 -0 -0 -0 -0 -0 -0 -0 -0 -0 -0 -0 -0 -0 -0 -0 -0 -0 -0 -0 -0 -0 -0 -0 -0 -0 -0 -0 -0 -0 -0 -0 -0
-0 -0 -0 -0 -0 -0 -0 -0 -0 -0 -0 -0 -0 -0 -0 -0 -0 -0 -0 -0 -0 -0 -0 -0 -0 -0 -0 -0 -0 -0 -0 -0 -0 -0 -0 -0 -0 -0 -0 -0 -0 -0 -0 -0
-0 -0 -0 -0 -0 -0 -0 -0 -0 -0 -0 -0 -0 -0 -0 -0 -0 -0 -0 -0 -0 -0 -0 -0 -0 -0 -0 -0 -0 -0 -0 -0 -0 -0 -0 -0 -0 -0 -0 -0 -0 -0 -0 -0
-0 -0 -0 -0 -0 -0 -0 -0 -0 -0 -0 -0 -0 -0 -0 -0 -0 -0 -0 -0 -0 -0 -0 -0 -0 -0 -0 -0 -0 -0 -0 -0 -0 -0 -0 -0 -0 -0 -0 -0 -0 -0 -0 -0
-0 -0 -0 -0 -0 -0 -0 -0 -0 -0 -0 -0 -0 -0 -0 -0 -0 -0 -0 -0 -0 -0 -0 -0 -0 -0 -0 -0 -0 -0 -0 -0 -0 -0 -0 -0 -0 -0 -0 -0 -0 -0 -0 -0
-0 -0 -0 -0 -0 -0 -0 -0 -0 -0 -0 -0 -0 -0 -0 -0 -0 -0 -0 -0 -0 -0 -0 -0 -0 -0 -0 -0 -0 -0 -0 -0 -0 -0 -0 -0 -0 -0 -0 -0 -0 -0 -0 -0
-0 -0 -0 -0 -0 -0 -0 -0 -0 -0 -0 -0 -0 -0 -0 -0 -0 -0 -0 -0 -0 -0 -0 -0 -0 -0 -0 -0 -0 -0 -0 -0 -0 -0 -0 -0 -0 -0 -0 -0 -0 -0 -0 -0
-0 -0 -0 -0 -0 -0 -0 -0 -0 -0 -0 -0 -0 -0 -0 -0 -0 -0 -0 -0 -0 -0 -0 -0 -0 -0 -0 -0 -0 -0 -0 -0 -0 -0 -0 -0 -0 -0 -0 -0 -0 -0 -0 -0
-0 -0 -0 -0 -0 -0 -0 -0 -0 -0 -0 -0 -0 -0 -0 -0 -0 -0 -0 -0 -0 -0 -0 -0 -0 -0 -0 -0 -0 -0 -0 -0 -0 -0 -0 -0 -0 -0 -0 -0 -0 -0 -0 -0
-0 -1 -0 -0 -0 -0 -0 -0 -0 -0 -0 -0 -0 -0 -0 -0 -0 -0 -0 -0 -0 -0 -0 -0 -0 -0 -0 -0 -0 -0 -0 -0 -0 -0 -0 -0 -0 -0 -0 -0 -0 -0 -0 -0
-0 -0 -0 -0 -0 -0 -0 -0 -0 -0 -0 -0 -0 -0 -0 -0 -0 -0 -0 -0 -0 -0 -0 -0 -0 -0 -0 -0 -0 -0 -0 -0 -0 -0 -0 -0 -0 -0 -0 -0 -0 -0 -0 -0
-0 -0 -0 -0 -0 -0 -0 -0 -0 -0 -0 -0 -0 -0 -0 -0 -0 -0 -0 -0 -0 -0 -0 -0 -0 -0 -0 -0 -0 -0 -0 -0 -0 -0 -0 -0 -0 -0 -0 -0 -0 -0 -0 -0
-0 -0 -0 -0 -0 -0 -0 -0 -0 -0 -0 -0 -0 -0 -0 -0 -0 -0 -0 -0 -0 -0 -0 -0 -0 -0 -0 -0 -0 -0 -0 -0 -0 -0 -0 -0 -0 -0 -0 -0 -0 -0 -0 -0
-0 -0 -0 -0 -0 -0 -0 -0 -0 -0 -0 -0 -0 -0 -0 -0 -0 -0 -0 -0 -0 -0 -0 -0 -0 -0 -0 -0 -0 -0 -0 -0 -0 -0 -0 -0 -0 -0 -0 -0 -0 -0 -0 -0
-0 -0 -0 -0 -0 -0 -0 -0 -0 -0 -0 -0 -0 -0 -0 -0 -0 -0 -0 -0 -0 -0 -0 -0 -0 -0 -0 -0 -0 -0 -0 -0 -0 -0 -0 -0 -0 -0 -0 -0 -0 -0 -0 -0
Wind_Speed
20 19 22 23 23 21 24 28 32 29 25 35 31 31 29 31 34 37 38 39 42 43 42 42 44 44 45 45 46 46 47 46 45 45 46 47 47 46 46 45 46 44 43 42
17 21 20 20 23 23 24 27 29 26 26 29 31 30 23 26 31 35 38 40 41 44 45 45 46 46 45 46 46 47 47 46 45 44 46 46 48 48 50 50 48 46 45 42
17 18 20 21 24 24 25 27 28 27 31 26 34 26 23 25 28 35 37 38 40 43 45 47 47 47 46 46 46 46 46 46 45 46 46 46 47 47 48 47 49 48 46 43
18 19 20 21 23 25 25 28 28 26 29 29 31 31 25 26 31 35 39 41 42 43 44 45 46 47 46 47 46 45 45 45 44 44 46 48 49 51 49 51 52 53 50 45
15 17 20 21 22 25 24 31 22 20 24 25 29 29 25 26 29 37 39 41 43 43 43 44 44 45 44 45 46 45 45 44 43 43 44 46 49 50 50 51 53 54 53 46
15 16 18 22 21 20 29 24 21 19 23 26 26 30 28 30 31 34 37 41 43 43 43 42 42 43 43 44 45 46 46 45 43 43 43 44 48 51 51 51 52 52 52 50
16 16 18 22 22 21 29 25 27 26 27 29 24 28 28 24 25 30 35 39 42 43 43 43 43 43 43 44 44 45 46 47 45 43 42 43 44 47 48 49 49 51 53 51
16 18 17 21 23 24 26 27 28 32 32 32 26 24 30 21 21 26 28 31 36 41 41 42 42 41 40 41 43 44 45 46 45 44 43 41 42 42 44 45 46 46 48 49
18 18 17 19 20 21 24 26 23 26 27 31 25 27 26 19 21 24 28 31 32 37 39 40 40 39 38 37 39 41 43 44 45 45 43 41 40 41 41 43 43 43 43 46
17 20 17 18 18 20 21 17 26 26 32 37 31 32 31 24 23 24 28 29 30 32 36 36 36 36 35 34 34 37 40 42 43 44 44 42 40 39 39 39 40 40 40 41
18 18 19 19 16 17 19 21 22 23 24 31 37 32 21 21 21 25 27 29 29 29 32 33 32 32 32 32 32 34 38 41 42 43 44 43 41 38 37 36 36 36 37 37
17 20 21 21 19 19 18 19 19 26 28 25 30 35 20 21 21 22 28 31 30 28 28 29 28 29 31 32 33 33 35 38 39 40 41 42 41 39 36 35 35 33 33 32
16 21 27 24 22 20 21 17 17 23 24 26 30 32 23 22 23 24 29 34 30 28 27 27 27 28 29 30 31 32 33 36 38 39 40 41 41 40 37 35 33 31 30 29
17 20 21 27 28 25 26 22 17 20 28 31 26 30 27 28 29 30 32 31 31 27 27 26 26 27 28 29 29 31 33 34 38 38 39 40 40 39 38 36 34 31 28 27
19 26 24 24 27 28 27 25 23 23 24 31 32 31 31 31 34 33 33 31 30 28 27 25 26 27 28 28 28 28 30 34 36 38 38 38 38 38 37 36 34 32 28 26
19 29 30 36 30 29 31 26 26 26 27 30 32 34 29 29 29 30 32 32 32 29 28 26 26 26 27 27 26 27 29 31 34 36 37 37 38 37 37 36 35 33 32 30
20 26 33 38 32 39 42 27 22 26 24 25 32 30 31 32 33 32 32 34 33 29 28 27 27 26 26 27 26 26 28 29 32 35 36 37 37 37 37 36 35 33 33 33
23 25 30 38 39 45 33 26 30 24 27 24 30 31 30 31 31 31 32 33 33 29 27 26 28 28 27 25 24 25 25 27 30 33 35 37 38 37 37 36 36 35 33 32
18 22 30 36 41 46 41 29 29 30 37 30 29 27 30 28 31 33 31 33 33 29 25 28 30 29 27 24 22 23 25 26 29 32 35 37 38 39 38 38 37 36 34 33
16 18 26 34 43 48 34 30 26 29 46 27 26 30 29 31 40 39 39 37 36 27 26 32 32 28 25 23 21 23 25 27 29 31 34 37 38 39 39 39 38 37 36 35
23 25 32 35 42 43 32 27 25 40 43 33 31 32 35 37 37 39 42 39 33 29 31 34 32 30 28 23 21 24 25 27 27 30 34 37 38 39 39 40 39 39 39 38
29 31 34 32 40 52 22 24 34 37 35 36 37 37 37 38 39 42 40 35 33 34 34 34 33 30 25 21 21 24 26 26 26 31 35 38 38 38 39 40 40 40 40 39
38 31 34 29 39 33 27 35 32 39 43 42 41 40 39 39 39 36 38 36 36 35 35 33 31 29 25 20 21 25 26 25 28 33 37 38 38 38 38 40 40 40 39 39
34 28 37 40 39 39 39 38 39 40 42 42 41 39 38 40 38 39 37 37 36 35 33 31 29 26 24 22 23 25 27 26 30 35 38 39 39 39 38 37 37 38 38 38
33 27 35 45 46 47 41 38 39 41 40 40 40 39 39 39 40 38 37 37 34 32 31 27 25 24 23 22 25 26 28 30 33 36 37 38 37 38 37 36 36 36 35 36
34 37 39 49 43 43 46 42 38 43 44 44 43 41 38 36 36 33 33 32 30 29 25 24 24 25 26 27 29 29 30 31 33 35 36 35 36 36 36 36 36 33 35 36
Wind_Direction
353 352 341 342 346 341 333 328 321 324 329 322 321 316 318 327 330 329 329 330 328 327 327 328 325 320 316 313 308 304 300 299 297 293 290 287 281 279 277 273 269 264 261 258
3 355 355 356 350 345 344 338 334 334 339 334 331 323 329 330 333 333 331 329 329 327 327 328 327 327 323 317 313 308 303 300 297 294 290 287 283 280 277 274 273 267 262 259
5 359 359 358 351 350 353 347 341 341 336 345 334 335 333 335 335 334 334 335 333 330 327 327 328 328 328 324 319 313 308 303 299 295 291 288 285 282 279 275 273 269 265 260
2 6 3 3 3 355 355 354 349 351 348 345 353 336 339 343 336 339 337 336 334 335 335 332 330 329 330 328 325 320 314 308 304 300 293 288 284 281 280 278 274 271 269 262
1 5 2 1 2 5 4 349 9 13 7 2 1 348 359 1 352 344 344 342 340 339 336 335 336 335 336 335 333 330 322 315 309 305 299 292 285 283 282 280 277 270 270 261
8 12 10 1 6 16 350 5 10 8 4 354 3 356 354 356 356 353 349 345 343 341 341 338 336 336 335 336 335 334 331 325 317 310 305 298 291 286 282 281 278 273 267 265
353 359 360 359 358 5 353 360 350 345 347 346 358 349 354 4 5 2 358 352 346 345 344 343 341 341 339 337 335 334 333 330 326 318 310 305 299 292 285 282 280 277 267 267
348 344 356 356 357 354 355 356 349 337 337 338 347 348 351 4 9 5 6 4 358 352 353 351 348 347 349 346 344 337 336 335 332 326 318 312 306 299 292 286 283 279 271 272
341 343 352 356 1 1 354 353 3 348 344 337 341 345 344 356 359 1 2 3 3 359 355 356 355 355 355 355 352 346 337 336 336 335 330 320 314 307 299 292 287 283 279 271
348 338 348 352 357 359 359 11 353 355 341 334 337 342 340 349 353 355 358 0 2 360 357 358 359 359 0 360 358 352 342 335 336 337 342 333 321 314 310 301 293 288 283 277
348 343 344 347 351 353 356 354 358 356 351 341 335 343 351 349 352 350 354 356 356 357 355 355 358 359 1 1 358 355 346 336 337 340 343 339 329 320 315 310 302 297 289 282
345 340 336 340 348 349 349 347 350 343 341 340 336 333 352 348 349 346 345 347 349 351 351 352 354 356 356 358 357 353 349 340 338 338 340 342 335 327 320 317 309 303 300 290
345 334 329 334 340 340 337 339 338 339 338 327 331 333 349 341 340 337 335 339 341 344 345 348 350 351 353 354 355 353 349 339 332 334 337 339 337 333 326 321 316 310 308 303
342 331 324 324 328 334 329 331 325 325 326 325 311 313 321 326 329 332 332 335 337 340 340 342 344 346 349 350 351 351 349 345 329 328 331 333 335 332 327 325 322 315 309 312
333 322 321 318 318 318 317 316 313 301 299 313 317 318 318 326 327 328 331 332 333 336 336 337 339 341 344 346 347 348 347 344 338 324 325 329 329 330 327 324 323 317 311 308
325 321 323 318 322 319 315 313 305 299 298 295 294 302 301 313 324 328 331 332 331 331 331 332 334 335 337 341 342 344 344 343 340 335 320 320 323 324 324 323 321 318 311 304
318 319 321 315 325 322 317 319 312 317 316 306 306 309 320 323 326 329 333 333 330 328 327 328 330 331 331 334 337 339 341 341 338 333 329 317 317 320 321 322 320 318 316 309
313 314 317 313 320 314 327 330 330 314 318 308 308 312 316 320 324 327 331 331 330 326 324 327 329 328 327 329 332 335 338 338 336 333 329 325 315 314 314 317 319 316 315 313
298 310 313 313 313 313 319 328 329 323 321 316 307 313 318 321 324 324 330 331 329 325 323 326 327 325 324 324 328 331 332 333 333 331 328 325 318 312 310 309 312 313 310 310
298 297 304 313 311 311 325 331 333 330 320 334 326 323 322 325 319 324 331 330 328 324 322 325 326 325 323 322 324 325 327 328 328 328 326 323 320 312 307 304 304 303 304 304
308 302 293 301 306 309 318 322 331 319 322 330 328 324 321 318 317 322 325 324 324 322 319 322 322 320 319 319 320 320 323 324 327 327 324 321 320 315 309 303 303 296 297 296
303 304 305 301 304 309 318 326 314 319 323 322 320 318 316 315 315 319 323 324 324 322 321 320 319 318 319 318 318 319 321 326 327 325 322 318 317 316 312 307 302 298 293 292
301 299 303 294 301 313 308 311 311 315 315 315 315 315 314 315 316 318 321 321 322 323 323 323 321 319 319 319 319 319 322 326 325 322 319 317 316 314 314 308 303 298 296 293
303 299 299 305 304 302 302 305 306 308 309 312 313 313 313 312 314 315 316 318 319 321 321 322 321 320 319 320 321 322 323 326 322 319 317 316 314 312 311 312 309 303 296 291
302 305 303 299 302 305 304 305 308 310 311 312 311 310 310 311 311 312 314 317 318 319 322 324 324 325 324 324 323 324 323 323 320 318 316 314 313 311 311 310 308 304 305 297
294 295 299 300 306 303 307 313 313 312 312 312 312 311 311 311 310 312 313 316 318 320 322 324 325 325 324 324 323 322 323 323 321 318 317 315 313 310 310 310 308 310 305 302